| time (UTC) | temp F | wind direction | speed MPH | gust MPH | rain 1hr in | rain 24hr in | rain mn in | humidity % | barometer mb |
| 20260507031705 | 53 | 240 | 0.0 | 0.0 | 0.00 | 0.09 | 0.10 | 96 | 1008.5 |
| 20260507030712 | 54 | 193 | 0.0 | 0.0 | 0.00 | 0.09 | 0.10 | 96 | 1008.8 |
| 20260507025640 | 56 | 247 | 0.0 | 1.0 | 0.00 | 0.09 | 0.10 | 96 | 1008.5 |
| 20260507024636 | 58 | 324 | 0.0 | 4.0 | 0.00 | 0.09 | 0.10 | 97 | 1008.3 |
| 20260507023624 | 59 | 332 | 0.0 | 1.0 | 0.00 | 0.09 | 0.10 | 98 | 1008.2 |
| 20260507022612 | 59 | 104 | 0.0 | 0.0 | 0.00 | 0.09 | 0.10 | 98 | 1008.3 |
| 20260507021553 | 59 | 266 | 0.0 | 1.0 | 0.00 | 0.09 | 0.10 | 98 | 1008.1 |
| 20260507020609 | 60 | 335 | 0.0 | 0.0 | 0.00 | 0.09 | 0.10 | 98 | 1008.0 |
| 20260507015552 | 60 | 223 | 0.0 | 1.0 | 0.00 | 0.09 | 0.10 | 98 | 1007.9 |
| 20260507014534 | 60 | 99 | 0.0 | 1.0 | 0.00 | 0.09 | 0.10 | 98 | 1008.0 |
| 20260507013522 | 60 | 53 | 0.0 | 0.0 | 0.00 | 0.09 | 0.10 | 98 | 1007.7 |
| 20260507012510 | 60 | 151 | 0.0 | 0.0 | 0.00 | 0.09 | 0.10 | 98 | 1007.7 |
| 20260507011517 | 60 | 135 | 0.0 | 0.0 | 0.00 | 0.09 | 0.10 | 98 | 1007.5 |
| 20260507010530 | 60 | 210 | 0.0 | 0.0 | 0.00 | 0.09 | 0.10 | 98 | 1007.5 |
| 20260507004337 | 60 | 141 | 0.0 | 0.0 | 0.00 | 0.09 | 0.10 | 98 | 1007.3 |
| 20260507003401 | 60 | 140 | 0.0 | 0.0 | 0.00 | 0.09 | 0.10 | 98 | 1007.2 |
| 20260507002330 | 60 | 139 | 0.0 | 0.0 | 0.00 | 0.09 | 0.10 | 98 | 1007.1 |
| 20260507001304 | 60 | 135 | 0.0 | 0.0 | 0.00 | 0.09 | 0.10 | 98 | 1007.1 |
| 20260507000254 | 60 | 98 | 0.0 | 0.0 | 0.00 | 0.09 | 0.10 | 98 | 1007.1 |
| 20260506235238 | 60 | 349 | 0.0 | 0.0 | 0.00 | 0.09 | 0.10 | 98 | 1006.9 |
| 20260506234229 | 60 | 144 | 0.0 | 0.0 | 0.00 | 0.09 | 0.10 | 98 | 1006.6 |
| 20260506232042 | 60 | 138 | 0.0 | 2.0 | 0.00 | 0.09 | 0.10 | 98 | 1006.9 |
| 20260506231022 | 60 | 173 | 0.0 | 0.0 | 0.00 | 0.09 | 0.10 | 98 | 1006.9 |
| 20260506230018 | 60 | 156 | 0.0 | 0.0 | 0.00 | 0.09 | 0.10 | 98 | 1006.8 |
| 20260506222631 | 60 | 139 | 0.0 | 0.0 | 0.00 | 0.09 | 0.10 | 98 | 1006.4 |
| 20260506221644 | 60 | 181 | 0.0 | 0.0 | 0.00 | 0.09 | 0.10 | 98 | 1006.3 |
| 20260506215533 | 60 | 245 | 0.0 | 0.0 | 0.00 | 0.09 | 0.10 | 97 | 1006.3 |
| 20260506213419 | 60 | 144 | 0.0 | 0.0 | 0.00 | 0.09 | 0.10 | 97 | 1006.1 |
| 20260506205029 | 59 | 146 | 0.0 | 0.0 | 0.04 | 0.09 | 0.09 | 97 | 1005.9 |
| 20260506203956 | 59 | 136 | 0.0 | 1.0 | 0.06 | 0.09 | 0.09 | 97 | 1006.2 |
| 20260506202945 | 59 | 133 | 0.0 | 0.0 | 0.05 | 0.08 | 0.08 | 97 | 1006.2 |
| 20260506201933 | 60 | 155 | 0.0 | 1.0 | 0.00 | 0.06 | 0.06 | 97 | 1006.2 |
| 20260506200914 | 60 | 141 | 0.0 | 0.0 | 0.04 | 0.06 | 0.06 | 97 | 1006.3 |
| 20260506193618 | 60 | 141 | 0.0 | 0.0 | 0.00 | 0.04 | 0.04 | 96 | 1006.7 |
| 20260506192610 | 60 | 145 | 0.0 | 1.0 | 0.00 | 0.03 | 0.03 | 95 | 1006.8 |
| 20260506190500 | 60 | 137 | 0.0 | 1.0 | 0.00 | 0.03 | 0.03 | 95 | 1006.8 |
| 20260506185518 | 60 | 140 | 0.0 | 0.0 | 0.00 | 0.03 | 0.03 | 94 | 1006.8 |
| 20260506184444 | 60 | 113 | 0.0 | 2.0 | 0.00 | 0.03 | 0.03 | 94 | 1007.0 |
| 20260506183447 | 60 | 163 | 0.0 | 2.0 | 0.00 | 0.03 | 0.03 | 93 | 1007.1 |
| 20260506182422 | 60 | 150 | 0.0 | 3.0 | 0.00 | 0.03 | 0.03 | 93 | 1007.2 |
| 20260506181439 | 60 | 133 | 0.0 | 3.0 | 0.00 | 0.03 | 0.03 | 91 | 1007.3 |
| 20260506180503 | 61 | 141 | 0.0 | 2.0 | 0.00 | 0.02 | 0.02 | 91 | 1007.5 |
| 20260506174418 | 61 | 183 | 0.0 | 2.0 | 0.00 | 0.02 | 0.02 | 89 | 1007.5 |
| 20260506173402 | 61 | 141 | 0.0 | 2.0 | 0.00 | 0.02 | 0.02 | 89 | 1007.3 |
| 20260506172425 | 62 | 124 | 0.0 | 2.0 | 0.00 | 0.02 | 0.02 | 88 | 1007.2 |
| 20260506171403 | 63 | 140 | 0.0 | 2.0 | 0.00 | 0.01 | 0.01 | 86 | 1007.4 |
| 20260506170420 | 63 | 145 | 0.0 | 2.0 | 0.00 | 0.01 | 0.01 | 85 | 1007.5 |
| 20260506165352 | 64 | 146 | 0.0 | 2.0 | 0.00 | 0.00 | 0.00 | 83 | 1007.8 |
| 20260506164345 | 65 | 138 | 0.0 | 1.0 | 0.00 | 0.00 | 0.00 | 81 | 1008.2 |
| 20260506162249 | 65 | 155 | 0.0 | 2.0 | 0.00 | 0.00 | 0.00 | 78 | 1008.4 |
| 20260506161304 | 65 | 160 | 0.0 | 2.0 | 0.00 | 0.00 | 0.00 | 79 | 1008.4 |
| 20260506160259 | 66 | 152 | 0.0 | 2.0 | 0.00 | 0.00 | 0.00 | 77 | 1008.5 |
| 20260506155312 | 66 | 153 | 0.0 | 2.0 | 0.00 | 0.00 | 0.00 | 78 | 1008.6 |
| 20260506154240 | 66 | 117 | 0.0 | 2.0 | 0.00 | 0.00 | 0.00 | 77 | 1008.7 |
| 20260506153220 | 67 | 131 | 0.0 | 2.0 | 0.00 | 0.00 | 0.00 | 76 | 1008.9 |
| 20260506152230 | 67 | 139 | 0.0 | 2.0 | 0.00 | 0.00 | 0.00 | 75 | 1008.7 |
| 20260506151213 | 67 | 134 | 0.0 | 2.0 | 0.00 | 0.00 | 0.00 | 76 | 1008.9 |
| 20260506150222 | 67 | 121 | 0.0 | 0.0 | 0.00 | 0.00 | 0.00 | 76 | 1008.8 |
| 20260506145213 | 66 | 153 | 0.0 | 2.0 | 0.00 | 0.00 | 0.00 | 76 | 1008.9 |
| 20260506144219 | 66 | 154 | 0.0 | 2.0 | 0.00 | 0.00 | 0.00 | 77 | 1008.9 |
| 20260506143202 | 66 | 88 | 0.0 | 3.0 | 0.00 | 0.00 | 0.00 | 77 | 1008.8 |
| 20260506142207 | 66 | 157 | 1.0 | 4.0 | 0.00 | 0.00 | 0.00 | 77 | 1008.9 |
| 20260506141202 | 66 | 131 | 1.0 | 4.0 | 0.00 | 0.00 | 0.00 | 77 | 1009.1 |
| 20260506140158 | 65 | 233 | 1.0 | 4.0 | 0.00 | 0.00 | 0.00 | 78 | 1008.9 |
| 20260506135142 | 65 | 115 | 1.0 | 3.0 | 0.00 | 0.00 | 0.00 | 78 | 1008.8 |
| 20260506134109 | 65 | 151 | 0.0 | 3.0 | 0.00 | 0.00 | 0.00 | 79 | 1008.9 |
| 20260506133131 | 64 | 165 | 1.0 | 3.0 | 0.00 | 0.00 | 0.00 | 79 | 1009.0 |
| 20260506132127 | 64 | 130 | 1.0 | 3.0 | 0.00 | 0.00 | 0.00 | 81 | 1008.8 |
| 20260506131117 | 63 | 165 | 0.0 | 2.0 | 0.00 | 0.00 | 0.00 | 82 | 1008.9 |
| 20260506130125 | 63 | 134 | 0.0 | 3.0 | 0.00 | 0.00 | 0.00 | 82 | 1008.9 |
| 20260506125105 | 62 | 129 | 0.0 | 3.0 | 0.00 | 0.00 | 0.00 | 83 | 1009.0 |
| 20260506124103 | 62 | 143 | 0.0 | 3.0 | 0.00 | 0.00 | 0.00 | 83 | 1009.0 |
| 20260506121918 | 62 | 267 | 0.0 | 2.0 | 0.00 | 0.00 | 0.00 | 83 | 1009.1 |
| 20260506120937 | 62 | 133 | 0.0 | 2.0 | 0.00 | 0.00 | 0.00 | 83 | 1009.5 |
| 20260506115950 | 62 | 53 | 0.0 | 2.0 | 0.00 | 0.00 | 0.00 | 84 | 1009.4 |
| 20260506114956 | 61 | 143 | 0.0 | 3.0 | 0.00 | 0.00 | 0.00 | 84 | 1009.3 |
| 20260506113943 | 61 | 115 | 0.0 | 3.0 | 0.00 | 0.00 | 0.00 | 85 | 1009.3 |
| 20260506112943 | 61 | 155 | 0.0 | 3.0 | 0.00 | 0.00 | 0.00 | 85 | 1009.2 |
| 20260506111952 | 60 | 201 | 0.0 | 3.0 | 0.00 | 0.00 | 0.00 | 86 | 1009.3 |
| 20260506104651 | 60 | 129 | 0.0 | 2.0 | 0.00 | 0.00 | 0.00 | 86 | 1009.6 |
| 20260506103716 | 59 | 240 | 0.0 | 1.0 | 0.00 | 0.00 | 0.00 | 87 | 1009.4 |
| 20260506102730 | 59 | 256 | 0.0 | 1.0 | 0.00 | 0.00 | 0.00 | 87 | 1009.2 |
| 20260506101701 | 59 | 142 | 0.0 | 3.0 | 0.00 | 0.00 | 0.00 | 88 | 1009.1 |
| 20260506100724 | 59 | 143 | 0.0 | 2.0 | 0.00 | 0.00 | 0.00 | 88 | 1009.3 |
| 20260506095702 | 59 | 115 | 0.0 | 1.0 | 0.00 | 0.00 | 0.00 | 88 | 1009.2 |
| 20260506094630 | 59 | 221 | 0.0 | 2.0 | 0.00 | 0.00 | 0.00 | 87 | 1009.1 |
| 20260506093612 | 59 | 197 | 0.0 | 1.0 | 0.00 | 0.00 | 0.00 | 88 | 1009.1 |
| 20260506092552 | 58 | 149 | 0.0 | 0.0 | 0.00 | 0.00 | 0.00 | 87 | 1009.2 |
| 20260506091533 | 59 | 245 | 0.0 | 0.0 | 0.00 | 0.00 | 0.00 | 87 | 1009.2 |
| 20260506085403 | 59 | 191 | 0.0 | 1.0 | 0.00 | 0.00 | 0.00 | 86 | 1009.4 |
| 20260506084330 | 59 | 307 | 0.0 | 0.0 | 0.00 | 0.00 | 0.00 | 86 | 1009.4 |
| 20260506083301 | 59 | 273 | 0.0 | 1.0 | 0.00 | 0.00 | 0.00 | 86 | 1009.6 |
| 20260506082323 | 58 | 142 | 0.0 | 0.0 | 0.00 | 0.00 | 0.00 | 85 | 1009.5 |
| 20260506081332 | 59 | 145 | 0.0 | 0.0 | 0.00 | 0.00 | 0.00 | 85 | 1009.6 |
| 20260506080319 | 59 | 189 | 0.0 | 0.0 | 0.00 | 0.00 | 0.00 | 84 | 1009.6 |
| 20260506072124 | 59 | 141 | 0.0 | 0.0 | 0.00 | 0.00 | 0.00 | 82 | 1009.7 |
| 20260506061834 | 60 | 131 | 0.0 | 0.0 | 0.00 | 0.00 | 0.00 | 79 | 1009.6 |
| 20260506050322 | 63 | 135 | 0.0 | 1.0 | 0.00 | 0.00 | 0.00 | 73 | 1010.0 |
| 20260506043227 | 63 | 150 | 0.0 | 1.0 | 0.00 | 0.00 | 0.00 | 72 | 1010.1 |
| 20260506042200 | 64 | 136 | 0.0 | 2.0 | 0.00 | 0.00 | 0.00 | 71 | 1010.0 |
| 20260506041141 | 64 | 185 | 0.0 | 4.0 | 0.00 | 0.00 | 0.00 | 70 | 1010.1 |
| 20260506040203 | 64 | 190 | 0.0 | 1.0 | 0.00 | 0.00 | 0.00 | 70 | 1010.0 |
| 20260506035138 | 65 | 107 | 0.0 | 3.0 | 0.00 | 0.00 | 0.00 | 69 | 1010.0 |
| 20260506034203 | 65 | 223 | 0.0 | 3.0 | 0.00 | 0.00 | 0.00 | 69 | 1010.0 |